Terminal Aerodrome Forecast
Issued by NWS Melbourne, FL

Home | Current Version | Previous Version | Text Only | Print | Product List | Glossary On
Versions: 1 2 3 4 5 6 7 8 9 10 11 12 13 14 15 16 17
000
FTUS42 KMLB 291437 AAA
TAFMLB
TAF AMD
KMLB 291437Z 2915/3012 12011KT P6SM VCSH BKN025 BKN035
     FM291600 10010KT P6SM VCTS SCT035CB BKN250
      TEMPO 2918/2921 3SM TSRA BKN030CB BKN050
     FM292200 11008KT P6SM SCT035 SCT120 BKN250
     FM300400 12007KT P6SM VCSH SCT035 BKN250=

USA.gov is the U.S. government's official web portal to all federal, state and local government web resources and services.